[[{"header":{"parameterUnit":"m.s-1","parameterCategory":1,"la1":30.2991,"la2":30.254,"lo1":-89.0895,"lo2":-89.0444,"dy":0.0017,"dx":0.0017,"nx":28,"ny":28,"refTime":"2023-09-27T03:00:00:Z","depth":0,"parameterNumber":2,"parameterNumberName":"U-component_of_WINDS"},"data":[0,0,0,0,0,0,0,0,0,0,0,0,0,0,0,0,0,0,0,0,0,0,0,0,0,0,0,0,0,0,0,0,0,0,0,0,0,0,0,0,0,0,0,0,0,0,0,0,0,0,0,0,0,0,0,0,0,0,-4.4202,-4.4203,0,-4.4245,-4.4246,-4.4246,-4.4175,-4.4173,-4.417,-4.4168,-4.4208,-4.4211,-4.4214,0,0,0,0,0,0,0,0,0,0,0,0,0,-4.4053,-4.4056,-4.4202,-4.4203,-4.4203,-4.4245,-4.4246,-4.4246,-4.4176,-4.4173,-4.417,-4.4167,-4.4207,-4.4211,-4.4215,0,0,0,0,0,0,0,0,0,0,0,0,0,-4.4109,-4.4057,-4.4202,-4.4173,-4.4171,-4.4245,-4.4246,-4.4247,-4.4176,-4.4172,-4.4169,-4.4165,-4.4205,-4.421,-4.4215,-4.4318,0,0,-4.423,-4.4232,0,0,0,0,0,0,0,0,-4.4106,-4.4115,-4.4177,-4.4175,-4.4173,-4.4201,-4.4208,-4.427,-4.4177,-4.4174,-4.4168,-4.4164,-4.4208,-4.4213,-4.4229,-4.432,-4.4322,-4.4231,-4.4234,-4.4236,-4.4237,0,0,0,0,0,0,0,-4.4102,-4.4112,-4.4219,-4.4178,-4.4175,-4.4156,-4.416,-4.4219,-4.4211,-4.4174,-4.4169,-4.4175,-4.4206,-4.4224,-4.4229,-4.4322,-4.4231,-4.4235,-4.4238,-4.424,-4.4498,-4.4501,0,0,0,0,0,0,-4.4103,-4.411,-4.4218,-4.422,-4.413,-4.4162,-4.4166,-4.4196,-4.421,-4.4209,-4.4178,-4.4172,-4.4217,-4.4223,-4.423,-4.4349,-4.4236,-4.424,-4.4243,-4.4494,-4.4499,-4.4503,0,0,0,0,0,0,-4.41,-4.4113,-4.4216,-4.4164,-4.4175,-4.4168,-4.4202,-4.4198,-4.4216,-4.4213,-4.4211,-4.4198,-4.4215,-4.4223,-4.4297,-4.435,-4.4243,-4.4247,-4.4489,-4.4495,-4.4501,-4.4591,0,0,0,0,0,0,-4.4096,-4.4112,-4.4153,-4.4165,-4.4179,-4.4284,-4.4205,-4.4202,-4.4225,-4.4217,-4.4231,-4.423,-4.4212,-4.429,-4.4301,-4.4355,-4.4251,-4.4484,-4.4492,-4.4499,-4.4583,-4.4599,-4.4612,0,0,0,0,0,-4.4091,-4.4176,-4.4155,-4.4169,-4.4229,-4.4287,-4.4294,-4.4273,-4.423,-4.4269,-4.4267,-4.423,-4.4343,-4.4298,-4.4311,-4.4366,-4.4481,-4.449,-4.4498,-4.4576,-4.4596,-4.4612,0,0,0,0,0,0,-4.4169,-4.4177,-4.4154,-4.4247,-4.4267,-4.4275,-4.4324,-4.4295,-4.4327,-4.4318,-4.4289,-4.4293,-4.4372,-4.4376,-4.4326,-4.4465,-4.4404,-4.4416,-4.4459,-4.4478,-4.4492,-4.4488,-4.4255,0,0,0,0,0,-4.4197,-4.4245,-4.4249,-4.433,-4.4341,-4.4331,-4.4356,-4.4338,-4.4357,-4.4365,-4.4368,-4.4387,-4.4426,-4.4452,-4.4489,-4.4584,-4.4584,-4.4629,-4.4643,-4.4656,-4.4665,-4.4713,-4.4732,-4.4531,-4.4531,-4.4531,0,0,-4.4255,-4.4266,-4.4297,-4.4346,-4.4359,-4.4407,-4.4339,-4.4393,-4.4427,-4.4372,-4.4441,-4.4445,-4.4463,-4.4548,-4.4585,-4.4554,-4.4721,-4.4667,-4.4676,-4.4679,-4.4724,-4.4743,-4.476,-4.4537,-4.4536,-4.4535,0,0,-4.4385,-4.44,-4.4467,-4.4482,-4.4504,-4.4496,-4.4513,-4.4525,-4.4526,-4.4595,-4.4554,-4.4594,-4.4664,-4.4678,-4.4694,-4.4829,-4.4795,-4.4842,-4.4918,-4.4966,-4.4981,-4.4995,-4.504,-4.5057,-4.4852,-4.4852,-4.4852,0,-4.4454,-4.4527,-4.4505,-4.4562,-4.4583,-4.4537,-4.4604,-4.4619,-4.4651,-4.4666,-4.4632,-4.4717,-4.4726,-4.4812,-4.4845,-4.4861,-4.4876,-4.4839,-4.4981,-4.4995,-4.5007,-4.505,-4.5067,-4.4858,-4.4857,-4.4857,-4.4856,0,-4.4609,-4.4659,-4.4711,-4.4744,-4.4771,-4.4833,-4.4819,-4.4849,-4.4829,-4.4825,-4.4895,-4.4905,-4.4941,-4.4961,-4.4942,-4.5043,-4.5023,-4.4986,-4.4923,-4.5032,-4.5071,-4.5088,-4.4865,-4.4863,-4.4862,-4.4861,0,0,-4.4788,-4.4808,-4.4827,-4.484,-4.4861,-4.4898,-4.4957,-4.4994,-4.5019,-4.5043,-4.5089,-4.5149,-4.5114,-4.5133,-4.5115,-4.5157,-4.526,-4.5114,-4.5113,-4.5138,-4.5369,-4.5395,-4.5414,-4.5238,-4.5241,-4.5244,-4.5366,0,-4.4915,-4.5017,-4.4999,-4.5098,-4.5142,-4.5099,-4.515,-4.5167,-4.5164,-4.5201,-4.5197,-4.5239,-4.5191,-4.5202,-4.5242,-4.5239,-4.5305,-4.523,-4.5278,-4.528,-4.5272,-4.5436,-4.5464,-4.5579,-4.5382,-4.5385,-4.5387,0,-4.5077,-4.5107,-4.521,-4.5221,-4.5239,-4.5286,-4.5317,-4.5353,-4.5371,-4.5366,-4.5387,-4.5361,-4.5417,-4.5356,-4.5431,-4.5381,-4.54,-4.5401,-4.5405,-4.5406,-4.5338,-4.5438,-4.5615,-4.5631,-4.5411,-4.5409,-4.5408,0,-4.5193,-4.526,-4.5329,-4.5343,-4.5359,-4.5391,-4.5399,-4.5414,-4.5436,-4.5463,-4.5477,-4.5511,-4.5528,-4.5554,-4.5537,-4.5495,-4.5614,-4.5553,-4.5609,-4.561,-4.5634,-4.5632,-4.5814,-4.5652,-4.5652,-4.5651,-4.5651,0,-4.5335,-4.5399,-4.5382,-4.5424,-4.5494,-4.5472,-4.5541,-4.5544,-4.5557,-4.5597,-4.5563,-4.5601,-4.5578,-4.5614,-4.5602,-4.5664,-4.5673,-4.5669,-4.5664,-4.5671,-4.5671,-4.568,-4.5671,-4.5656,-4.5655,-4.5654,-4.5653,0,-4.5476,-4.5468,-4.554,-4.5549,-4.5553,-4.5604,-4.5611,-4.5649,-4.5645,-4.5696,-4.5707,-4.5699,-4.574,-4.5727,-4.5771,-4.5762,-4.5841,-4.5827,-4.5835,-4.583,-4.5887,-4.5881,-4.6078,-4.6102,-4.5928,-4.593,-4.5931,0,-4.5566,-4.5614,-4.5629,-4.5654,-4.5665,-4.5706,-4.5729,-4.571,-4.5735,-4.5758,-4.5793,-4.5831,-4.586,-4.5927,-4.5924,-4.5957,-4.5942,-4.6009,-4.5947,-4.5951,-4.5939,-4.5936,-4.5939,-4.6021,-4.6023,-4.6024,-4.6026,0,-4.5725,-4.5718,-4.5754,-4.5787,-4.5816,-4.5841,-4.5863,-4.5885,-4.5867,-4.5896,-4.5938,-4.5961,-4.6006,-4.6043,-4.6073,-4.6079,-4.6048,-4.6046,-4.606,-4.6066,-4.6067,-4.6064,-4.5866,-4.6041,-4.6039,-4.6038,-4.6037,-4.6037,-4.5841,-4.5881,-4.5897,-4.5937,-4.5952,-4.5973,-4.6009,-4.6009,-4.6044,-4.6079,-4.6065,-4.6112,-4.6127,-4.6164,-4.6174,-4.621,-4.6184,-4.6205,-4.621,-4.6215,-4.6221,-4.6064,-4.6216,-4.6215,-4.6215,-4.6214,-4.6214,0,-4.5996,-4.6005,-4.6042,-4.6073,-4.6104,-4.6075,-4.6097,-4.6124,-4.6167,-4.6184,-4.6213,-4.626,-4.6296,-4.6296,-4.6329,-4.6357,-4.6344,-4.6366,-4.6362,-4.6364,-4.6244,-4.6227,-4.6376,-4.6376,-4.6376,-4.6376,-4.6376,-4.6376,-4.608,-4.6145,-4.614,-4.6211,-4.6219,-4.6265,-4.628,-4.6299,-4.6312,-4.6366,-4.6396,-4.6396,-4.6406,-4.6439,-4.647,-4.6469,-4.6481,-4.6508,-4.6502,-4.6389,-4.6373,-4.6357,-4.6341,-4.6512,-4.6512,-4.6618,-4.6619,-4.662]},{"header":{"parameterUnit":"m.s-1","parameterCategory":1,"la1":30.2991,"la2":30.254,"lo1":-89.0895,"lo2":-89.0444,"dy":0.0017,"dx":0.0017,"nx":28,"ny":28,"refTime":"2023-09-27T03:00:00:Z","depth":0,"parameterNumber":3,"parameterNumberName":"V-component_of_WINDS"},"data":[0,0,0,0,0,0,0,0,0,0,0,0,0,0,0,0,0,0,0,0,0,0,0,0,0,0,0,0,0,0,0,0,0,0,0,0,0,0,0,0,0,0,0,0,0,0,0,0,0,0,0,0,0,0,0,0,0,0,0.9538,0.954,0,0.9762,0.9764,0.9767,0.9844,0.9843,0.9842,0.9841,1.0059,1.0065,1.0072,0,0,0,0,0,0,0,0,0,0,0,0,0,0.9168,0.9174,0.9538,0.9541,0.9543,0.9761,0.9764,0.9767,0.9844,0.9843,0.9842,0.9841,1.0057,1.0064,1.0072,0,0,0,0,0,0,0,0,0,0,0,0,0,0.9353,0.9176,0.9537,0.9608,0.9617,0.976,0.9764,0.9768,0.9844,0.9843,0.9842,0.984,1.0054,1.0064,1.0073,1.0159,0,0,1.0104,1.0108,0,0,0,0,0,0,0,0,0.9343,0.9367,0.9595,0.9604,0.9614,0.9774,0.9714,0.9899,0.9844,0.9757,0.9841,0.984,0.9964,0.9981,1.0026,1.017,1.0179,1.0104,1.011,1.0115,1.0117,0,0,0,0,0,0,0,0.933,0.9357,0.9626,0.9598,0.961,0.9626,0.9651,0.9749,0.9865,0.9765,0.9771,0.9797,0.9969,1.0016,1.0031,1.0182,1.0104,1.0113,1.0119,1.0123,1.0408,1.041,0,0,0,0,0,0,0.9306,0.9346,0.9619,0.9633,0.9473,0.9633,0.9661,0.9723,0.9864,0.9884,0.9798,0.98,1.0,1.002,1.0039,1.0151,1.0115,1.0124,1.0129,1.0406,1.0408,1.041,0,0,0,0,0,0,0.9298,0.933,0.961,0.9491,0.9528,0.9641,0.971,0.9728,0.9776,0.9889,0.9909,0.9826,1.0,1.0025,1.013,1.0159,1.0128,1.0137,1.0404,1.0407,1.0409,1.0372,0,0,0,0,0,0,0.9287,0.9327,0.9363,0.9492,0.9534,0.97,0.9712,0.9734,0.9794,0.9799,0.992,0.9939,1.0001,1.0115,1.014,1.0172,1.0145,1.0402,1.0406,1.0408,1.0371,1.0373,1.0375,0,0,0,0,0,0.9274,0.934,0.9364,0.9396,0.9582,0.9701,0.9725,0.9798,0.9796,0.9832,0.9905,0.9935,1.0152,1.0125,1.0154,1.0189,1.0401,1.0405,1.0408,1.0371,1.0373,1.0375,0,0,0,0,0,0,0.9207,0.9359,0.9386,0.9498,0.9587,0.9714,0.9762,0.9798,0.9886,0.9886,0.9969,0.9996,1.0094,1.0152,1.0119,1.028,1.0278,1.0287,1.0239,1.0242,1.0244,1.0228,1.0153,0,0,0,0,0,0.9207,0.9294,0.942,0.9505,0.9549,0.9648,0.9702,0.9751,0.9845,0.9881,0.9962,1.0049,1.0137,1.0192,1.0279,1.038,1.0407,1.0418,1.042,1.042,1.0428,1.0486,1.0492,1.0422,1.0422,1.0422,0,0,0.9204,0.9297,0.9347,0.9495,0.957,0.9655,0.9679,0.9768,0.9832,0.9894,0.9999,1.0061,1.0163,1.0266,1.0315,1.0317,1.0453,1.0425,1.0425,1.0432,1.049,1.0497,1.0502,1.0425,1.0425,1.0424,0,0,0.9244,0.9324,0.9405,0.9481,0.9595,0.966,0.9679,0.9803,0.9847,0.9955,1.0004,1.0078,1.0228,1.0299,1.0355,1.0423,1.0454,1.0448,1.0457,1.0512,1.0518,1.0523,1.0548,1.0556,1.0455,1.0455,1.0455,0,0.9226,0.9361,0.9441,0.953,0.9593,0.9657,0.9739,0.9806,0.9941,0.9982,0.9983,1.0173,1.0246,1.0367,1.0384,1.0427,1.045,1.0435,1.0511,1.0517,1.0523,1.0548,1.0557,1.0454,1.0454,1.0454,1.0454,0,0.9333,0.9426,0.9477,0.9611,0.968,0.9764,0.9854,0.9913,0.9956,1.002,1.0128,1.0218,1.0325,1.0357,1.0397,1.0484,1.0482,1.0496,1.0495,1.0528,1.0552,1.0562,1.0452,1.0452,1.0453,1.0453,0,0,0.9337,0.9517,0.9534,0.9596,0.9728,0.9799,0.9885,0.9994,1.0043,1.0133,1.0207,1.0332,1.0347,1.041,1.0459,1.0507,1.0556,1.0516,1.0519,1.052,1.0657,1.0647,1.0656,1.0578,1.058,1.0581,1.0649,0,0.9395,0.9558,0.9633,0.9759,0.9846,0.9908,0.9983,1.007,1.0132,1.0211,1.0278,1.0367,1.0379,1.0417,1.0468,1.054,1.0585,1.0536,1.0644,1.0647,1.0618,1.0669,1.0658,1.0718,1.0659,1.066,1.0662,0,0.9485,0.9581,0.9718,0.9841,0.9879,0.9946,1.0052,1.0128,1.0227,1.0268,1.034,1.0388,1.0477,1.047,1.0594,1.0559,1.0608,1.0649,1.0653,1.0666,1.0657,1.0684,1.0738,1.0747,1.0677,1.0676,1.0675,0,0.9476,0.9638,0.9742,0.9792,0.9938,0.9983,1.0045,1.0143,1.0204,1.0295,1.0335,1.0433,1.0487,1.0561,1.0632,1.0621,1.0749,1.0748,1.0785,1.0783,1.0809,1.0807,1.0873,1.0839,1.0839,1.0839,1.0839,0,0.9533,0.9614,0.974,0.9804,0.9896,0.998,1.0068,1.0133,1.022,1.0296,1.0353,1.0421,1.0512,1.0591,1.0647,1.0741,1.0764,1.0799,1.0813,1.0795,1.079,1.0828,1.0826,1.0841,1.0841,1.084,1.084,0,0.9539,0.9626,0.9743,0.9873,0.9907,0.9969,1.0078,1.0141,1.0206,1.03,1.0327,1.0428,1.0524,1.0604,1.0728,1.0766,1.0864,1.0879,1.0832,1.084,1.0872,1.0868,1.0965,1.0982,1.0935,1.0936,1.0936,0,0.957,0.9635,0.9773,0.983,0.9892,0.9982,1.0046,1.013,1.0193,1.0311,1.0359,1.046,1.0546,1.0696,1.0778,1.0873,1.0892,1.0919,1.0906,1.0886,1.0893,1.0889,1.0895,1.092,1.092,1.092,1.092,0,0.9617,0.9658,0.975,0.9857,0.9933,1.002,1.0108,1.015,1.025,1.0317,1.0419,1.0486,1.0615,1.0714,1.0819,1.0878,1.0915,1.0924,1.0938,1.092,1.089,1.0907,1.0836,1.0921,1.0921,1.0921,1.0921,1.0921,0.9637,0.9699,0.9806,0.9906,0.9983,1.0064,1.0131,1.0206,1.0293,1.0409,1.0451,1.0555,1.0651,1.0796,1.0856,1.0936,1.094,1.0959,1.0965,1.0968,1.0966,1.0877,1.0955,1.0955,1.0955,1.0955,1.0955,0,0.9688,0.9761,0.9853,0.9977,1.0056,1.0088,1.0188,1.025,1.0342,1.0431,1.0516,1.0631,1.0728,1.0818,1.0919,1.0965,1.0984,1.0988,1.0986,1.0999,1.0956,1.0935,1.0971,1.0971,1.0971,1.0971,1.0971,1.0971,0.9724,0.983,0.9883,1.0026,1.0098,1.0204,1.0258,1.0332,1.0404,1.0533,1.0616,1.0675,1.0764,1.0872,1.0961,1.0984,1.1018,1.1018,1.1046,1.1005,1.1002,1.0999,1.098,1.1025,1.1025,1.1082,1.1083,1.1083]}]]